TimeEDT,TemperatureF,Dew PointF,Humidity,Sea Level PressureIn,VisibilityMPH,Wind Direction,Wind SpeedMPH,Gust SpeedMPH,PrecipitationIn,Events,Conditions,WindDirDegrees,DateUTC
12:11 AM,46.9,25.5,43,30.07,10.0,West,8.1,-,N/A,,Clear,270,2012-10-11 04:11:00
12:31 AM,47.3,25.9,43,30.07,10.0,West,6.9,-,N/A,,Scattered Clouds,260,2012-10-11 04:31:00
12:51 AM,47.8,26.6,44,30.06,10.0,West,9.2,-,N/A,,Clear,270,2012-10-11 04:51:00
1:11 AM,48.4,26.1,42,30.06,10.0,West,9.2,16.1,N/A,,Scattered Clouds,270,2012-10-11 05:11:00
1:31 AM,49.1,26.4,41,30.06,10.0,West,8.1,-,N/A,,Scattered Clouds,260,2012-10-11 05:31:00
2:32 AM,50.0,28.0,43,30.04,10.0,WSW,9.2,17.3,N/A,,Scattered Clouds,250,2012-10-11 06:32:00
2:52 AM,50.0,27.7,42,30.04,10.0,West,6.9,-,N/A,,Clear,260,2012-10-11 06:52:00
3:12 AM,50.2,26.8,40,30.01,10.0,SW,10.4,17.3,N/A,,Scattered Clouds,230,2012-10-11 07:12:00
3:52 AM,50.9,27.9,41,30.01,10.0,SW,9.2,-,N/A,,Overcast,230,2012-10-11 07:52:00
4:12 AM,51.1,28.2,41,30.01,10.0,WSW,11.5,20.7,N/A,,Overcast,250,2012-10-11 08:12:00
4:32 AM,50.2,30.4,47,30.02,10.0,West,13.8,20.7,N/A,Rain,Light Rain,280,2012-10-11 08:32:00
4:52 AM,48.7,32.7,54,30.02,10.0,West,10.4,20.7,N/A,Rain,Light Rain,260,2012-10-11 08:52:00
5:12 AM,47.7,35.1,62,30.03,10.0,SW,6.9,-,N/A,Rain,Light Rain,230,2012-10-11 09:12:00
5:33 AM,47.3,36.0,65,30.01,10.0,SW,6.9,-,N/A,,Drizzle,230,2012-10-11 09:33:00
5:53 AM,47.3,36.5,66,30.00,10.0,SSW,9.2,17.3,N/A,Rain,Rain,200,2012-10-11 09:53:00
6:13 AM,47.3,36.7,67,29.99,10.0,SSW,5.8,-,N/A,,Overcast,200,2012-10-11 10:13:00
6:33 AM,48.4,35.6,61,29.98,10.0,SW,5.8,20.7,N/A,,Light Drizzle,230,2012-10-11 10:33:00
6:53 AM,50.0,36.0,59,29.98,10.0,SW,15.0,26.5,N/A,Rain,Rain,230,2012-10-11 10:53:00
7:13 AM,48.9,38.5,67,29.97,10.0,SSW,15.0,26.5,N/A,Rain,Light Rain,210,2012-10-11 11:13:00
7:33 AM,49.1,37.9,65,29.94,10.0,SW,18.4,28.8,N/A,Rain,Light Rain,230,2012-10-11 11:33:00
7:53 AM,48.6,39.2,70,29.92,10.0,SSW,16.1,32.2,N/A,Rain,Light Rain,200,2012-10-11 11:53:00
8:13 AM,50.2,40.8,70,29.89,10.0,SSE,12.7,25.3,N/A,Rain,Light Rain,160,2012-10-11 12:13:00
8:34 AM,48.2,39.9,73,29.90,10.0,South,10.4,16.1,N/A,,Overcast,170,2012-10-11 12:34:00
8:54 AM,51.6,41.0,67,29.91,10.0,SSW,20.7,34.5,N/A,Rain,Light Rain,210,2012-10-11 12:54:00
9:14 AM,52.0,40.5,65,29.90,10.0,SSW,19.6,32.2,N/A,Rain,Light Rain,210,2012-10-11 13:14:00
9:34 AM,52.9,41.9,66,29.90,10.0,SW,16.1,27.6,N/A,Rain,Light Rain,220,2012-10-11 13:34:00
9:54 AM,54.1,38.5,55,29.90,10.0,WSW,16.1,25.3,N/A,Rain,Light Rain,240,2012-10-11 13:54:00
10:14 AM,54.0,37.9,55,29.90,10.0,SW,18.4,27.6,N/A,,Overcast,230,2012-10-11 14:14:00
10:34 AM,54.0,37.8,54,29.90,10.0,WSW,12.7,23.0,N/A,,Overcast,240,2012-10-11 14:34:00
10:55 AM,54.1,37.2,53,29.90,10.0,WSW,15.0,27.6,N/A,,Overcast,250,2012-10-11 14:55:00
11:15 AM,54.0,37.6,54,29.91,10.0,West,15.0,26.5,N/A,Rain,Light Rain,260,2012-10-11 15:15:00
11:35 AM,53.8,34.9,49,29.91,10.0,West,16.1,24.2,N/A,,Overcast,280,2012-10-11 15:35:00
11:55 AM,53.1,35.1,50,29.91,10.0,WNW,13.8,31.1,N/A,,Overcast,290,2012-10-11 15:55:00
12:15 PM,52.3,34.9,51,29.93,10.0,WNW,17.3,25.3,N/A,Rain,Light Rain,290,2012-10-11 16:15:00
12:35 PM,49.1,38.3,66,29.94,10.0,WNW,17.3,25.3,N/A,Rain,Light Rain,290,2012-10-11 16:35:00
12:56 PM,49.1,38.5,67,29.95,10.0,WNW,10.4,16.1,N/A,Rain,Light Rain,290,2012-10-11 16:56:00
1:11 PM,50.0,38.3,64,29.95,10.0,West,12.7,-,N/A,,Overcast,280,2012-10-11 17:11:00
1:51 PM,48.2,40.6,75,29.96,10.0,NW,9.2,-,N/A,Rain,Light Rain,310,2012-10-11 17:51:00
2:11 PM,48.7,39.4,70,29.97,10.0,WNW,9.2,-,N/A,Rain,Light Rain,300,2012-10-11 18:11:00
2:31 PM,49.1,37.0,63,29.98,10.0,NW,13.8,18.4,N/A,,Light Drizzle,310,2012-10-11 18:31:00
2:51 PM,49.1,37.6,64,29.99,10.0,NW,13.8,17.3,N/A,,Overcast,310,2012-10-11 18:51:00
3:32 PM,50.0,37.8,63,30.01,10.0,WNW,9.2,18.4,N/A,,Overcast,290,2012-10-11 19:32:00
3:52 PM,50.0,36.9,61,30.01,10.0,NW,11.5,-,N/A,,Overcast,310,2012-10-11 19:52:00
4:12 PM,50.0,36.5,60,30.02,10.0,NW,10.4,-,N/A,,Overcast,310,2012-10-11 20:12:00
4:32 PM,49.5,36.0,60,30.04,10.0,NW,10.4,17.3,N/A,,Overcast,320,2012-10-11 20:32:00
5:13 PM,49.5,34.0,55,30.05,10.0,NW,8.1,-,N/A,,Overcast,320,2012-10-11 21:13:00
5:33 PM,49.5,32.9,53,30.05,10.0,NW,10.4,-,N/A,,Mostly Cloudy,310,2012-10-11 21:33:00
5:53 PM,49.5,32.7,53,30.05,10.0,NW,9.2,19.6,N/A,,Mostly Cloudy,310,2012-10-11 21:53:00
6:33 PM,49.5,31.6,50,30.07,10.0,NW,6.9,-,N/A,,Mostly Cloudy,320,2012-10-11 22:33:00
7:14 PM,48.4,31.3,52,30.09,10.0,NNW,6.9,18.4,N/A,,Scattered Clouds,330,2012-10-11 23:14:00
7:34 PM,48.2,29.8,49,30.10,10.0,NNW,8.1,-,N/A,,Scattered Clouds,330,2012-10-11 23:34:00
7:54 PM,48.4,27.7,45,30.11,10.0,NNW,8.1,18.4,N/A,,Mostly Cloudy,330,2012-10-11 23:54:00
8:14 PM,48.4,27.7,45,30.11,10.0,NW,10.4,-,N/A,,Scattered Clouds,320,2012-10-12 00:14:00
8:34 PM,47.8,28.4,47,30.12,10.0,NW,6.9,-,N/A,,Scattered Clouds,320,2012-10-12 00:34:00
9:15 PM,47.7,28.0,47,30.14,10.0,NNW,11.5,-,N/A,,Scattered Clouds,330,2012-10-12 01:15:00
9:35 PM,47.8,27.7,46,30.15,10.0,NW,17.3,25.3,N/A,,Mostly Cloudy,320,2012-10-12 01:35:00
9:55 PM,47.3,27.3,46,30.17,10.0,NNW,15.0,21.9,N/A,,Mostly Cloudy,330,2012-10-12 01:55:00
10:15 PM,46.8,28.0,48,30.18,10.0,NNW,15.0,21.9,N/A,,Mostly Cloudy,330,2012-10-12 02:15:00
10:35 PM,46.0,27.1,48,30.19,10.0,NNW,9.2,21.9,N/A,,Scattered Clouds,340,2012-10-12 02:35:00
10:56 PM,45.9,27.9,49,30.19,10.0,NNW,11.5,17.3,N/A,,Scattered Clouds,340,2012-10-12 02:56:00
11:51 PM,45.9,30.4,55,30.21,10.0,NNW,9.2,21.9,N/A,,Mostly Cloudy,340,2012-10-12 03:51:00